[[{"header":{"parameterUnit":"m.s-1","parameterCategory":2,"la1":30.2992,"la2":30.254,"lo1":-89.0895,"lo2":-89.0443,"dy":0.0025,"dx":0.0025,"nx":19,"ny":19,"refTime":"2026-03-29T21:00:00:Z","depth":"0","parameterNumber":2,"parameterNumberName":"U-component_of_CURRENTS"},"data":[0,0,0,-0.1753,-0.1754,-0.1738,-0.1738,-0.1628,-0.1626,0,0,0,0,0,0,0,0,0,0,0,-0.1753,-0.1753,-0.1753,-0.1754,-0.1738,-0.1738,-0.1628,-0.1626,0,0,0,0,0,0,0,0,0,0,0,-0.1753,-0.1753,-0.1753,-0.1754,-0.1738,-0.1738,-0.1628,-0.1658,0,0,0,0,0,0,0,0,0,0,-0.1682,-0.1699,-0.1753,-0.1753,-0.1754,-0.1738,-0.1738,-0.166,-0.1656,-0.1614,0,-0.1621,0,-0.1629,-0.1619,-0.1618,0,0,0,-0.1737,-0.1702,-0.1705,-0.1753,-0.1754,-0.1738,-0.174,-0.1659,-0.1654,-0.1608,-0.162,-0.1617,-0.1627,-0.1618,-0.1617,-0.1619,-0.162,0,0,-0.1737,-0.1738,-0.1709,-0.1702,-0.176,-0.1741,-0.174,-0.1656,-0.1649,-0.162,-0.1615,-0.1625,-0.1617,-0.1616,-0.1618,-0.1619,0,0,0,-0.1751,-0.1738,-0.1744,-0.1706,-0.1715,-0.1741,-0.174,-0.1653,-0.1658,-0.1614,-0.1624,-0.1616,-0.1615,-0.1617,-0.1619,-0.1708,0,0,0,-0.1751,-0.1748,-0.1745,-0.1743,-0.1718,-0.1696,-0.1738,-0.1663,-0.1655,-0.1625,-0.1616,-0.1614,-0.1616,-0.1618,-0.1704,-0.1783,0,0,0,-0.1752,-0.1747,-0.1751,-0.1743,-0.1746,-0.1698,-0.1697,-0.1662,-0.1661,-0.1618,-0.1613,-0.1616,-0.1618,-0.17,-0.1775,-0.1838,0,0,0,-0.1744,-0.172,-0.1751,-0.1724,-0.1746,-0.1738,-0.1698,-0.1679,-0.1647,-0.1616,-0.1616,-0.1619,-0.1698,-0.177,-0.1833,-0.172,-0.1735,0,0,-0.1701,-0.1715,-0.1697,-0.1725,-0.1721,-0.1739,-0.1766,-0.1712,-0.1669,-0.1631,-0.1632,-0.1705,-0.1775,-0.1837,-0.1845,-0.1856,0,0,0,-0.1674,-0.1662,-0.1664,-0.1675,-0.1695,-0.1786,-0.1742,-0.176,-0.1759,-0.1666,-0.1724,-0.1767,-0.1802,-0.1723,-0.1733,-0.1684,-0.1629,-0.1628,-0.1628,-0.1605,-0.1626,-0.164,-0.1686,-0.1717,-0.1802,-0.1873,-0.1901,-0.1801,-0.1845,-0.1851,-0.1984,-0.1901,-0.1907,-0.1859,-0.1844,-0.1844,-0.1845,-0.1845,-0.1575,-0.1595,-0.1677,-0.1695,-0.1824,-0.1872,-0.2007,-0.2008,-0.2074,-0.1982,-0.201,-0.1838,-0.1922,-0.1867,-0.1851,-0.185,-0.1849,-0.1848,-0.1848,-0.1525,-0.1559,-0.1591,-0.1712,-0.1851,-0.1965,-0.2126,-0.2182,-0.2177,-0.2226,-0.2086,-0.2081,-0.2022,-0.2196,-0.2197,-0.2197,-0.2198,-0.2198,-0.2199,-0.1492,-0.1542,-0.1602,-0.1742,-0.1835,-0.2,-0.2188,-0.2244,-0.2254,-0.2215,-0.2212,-0.2066,-0.2092,-0.2066,-0.2209,-0.2207,-0.2206,-0.2205,-0.2204,-0.143,-0.1483,-0.1563,-0.165,-0.1881,-0.1982,-0.2175,-0.2237,-0.2307,-0.2281,-0.2141,-0.2202,-0.2169,-0.2157,-0.2133,-0.2286,-0.2286,-0.2286,-0.2286,-0.1407,-0.1438,-0.1553,-0.1676,-0.1854,-0.1978,-0.2001,-0.206,-0.2103,-0.2087,-0.2153,-0.2024,-0.2022,-0.1974,-0.1967,-0.1936,-0.2036,-0.2036,-0.2035,-0.1412,-0.1446,-0.1504,-0.1629,-0.1827,-0.1899,-0.1826,-0.1819,-0.1931,-0.2026,-0.2123,-0.2133,-0.1943,-0.1944,-0.1858,-0.1853,-0.1797,0,0]},{"header":{"parameterUnit":"m.s-1","parameterCategory":2,"la1":30.2992,"la2":30.254,"lo1":-89.0895,"lo2":-89.0443,"dy":0.0025,"dx":0.0025,"nx":19,"ny":19,"refTime":"2026-03-29T21:00:00:Z","depth":"0","parameterNumber":3,"parameterNumberName":"V-component_of_CURRENTS"},"data":[0,0,0,-0.0228,-0.0226,-0.0145,-0.0145,-0.002,-0.0019,0,0,0,0,0,0,0,0,0,0,0,-0.0262,-0.0262,-0.0228,-0.0226,-0.0145,-0.0145,-0.002,-0.0019,0,0,0,0,0,0,0,0,0,0,0,-0.0262,-0.0262,-0.0262,-0.0226,-0.0145,-0.0145,-0.002,-0.0084,0,0,0,0,0,0,0,0,0,0,-0.0165,-0.0199,-0.0262,-0.0262,-0.0226,-0.0145,-0.0144,-0.0088,-0.008,-0.0054,0,-0.0053,0,-0.0034,-0.0011,-0.0011,0,0,0,-0.0216,-0.0205,-0.0188,-0.0262,-0.0225,-0.0145,-0.0179,-0.0084,-0.0076,-0.0045,-0.0051,-0.0046,-0.0032,-0.001,-0.001,0.0132,0.0133,0,0,-0.0221,-0.0237,-0.0194,-0.0184,-0.0217,-0.0182,-0.0176,-0.0079,-0.0072,-0.005,-0.0043,-0.003,-0.001,-0.0009,0.0132,0.0132,0,0,0,-0.024,-0.024,-0.0226,-0.0189,-0.0176,-0.0179,-0.0174,-0.0077,-0.0074,-0.0042,-0.0028,-0.0009,-0.0007,0.0131,0.0132,0.0112,0,0,0,-0.0243,-0.0252,-0.0229,-0.0236,-0.0179,-0.0127,-0.0174,-0.0081,-0.0069,-0.0029,-0.0009,-0.0006,0.013,0.0131,0.0111,0.0077,0,0,0,-0.0264,-0.0254,-0.025,-0.0237,-0.0206,-0.0128,-0.0119,-0.0078,-0.0061,-0.0011,-0.0006,0.013,0.0131,0.011,0.0077,0.0125,0,0,0,-0.0274,-0.0274,-0.0251,-0.0237,-0.0207,-0.0149,-0.0119,-0.0071,-0.003,-0.0008,0.013,0.0132,0.011,0.0077,0.0124,0.0104,0.0106,0,0,-0.0281,-0.0275,-0.0265,-0.0243,-0.0209,-0.0159,-0.0093,-0.0036,0.0008,0.01,0.0103,0.0111,0.0077,0.0125,0.0197,0.0196,0,0,0,-0.0271,-0.0264,-0.0248,-0.0222,-0.0177,-0.0125,-0.0056,0.0001,0.0089,0.0039,0.015,0.0129,0.016,0.0147,0.0148,0.0323,0.0139,0.0139,0.0139,-0.0312,-0.0279,-0.0268,-0.0222,-0.0183,-0.0088,-0.0028,0.0065,0.0105,0.0155,0.0143,0.0201,0.0188,0.0188,0.0371,0.019,0.019,0.019,0.019,-0.0332,-0.0327,-0.0291,-0.0267,-0.0209,-0.0149,-0.0006,0.0051,0.0176,0.0188,0.022,0.0162,0.0187,0.0382,0.019,0.019,0.019,0.019,0.019,-0.0351,-0.0352,-0.0335,-0.033,-0.0294,-0.021,-0.0139,-0.0008,0.0133,0.017,0.0199,0.0198,0.0345,0.0203,0.0204,0.0204,0.0204,0.0204,0.0204,-0.0395,-0.0379,-0.042,-0.0401,-0.0423,-0.0382,-0.0209,-0.0105,0.0074,0.0171,0.0172,0.0397,0.0205,0.0176,0.0205,0.0205,0.0205,0.0204,0.0204,-0.042,-0.0441,-0.051,-0.0548,-0.0581,-0.0572,-0.0398,-0.0162,-0.0003,0.0084,0.0412,0.0198,0.0205,0.0205,0.0178,0.0206,0.0206,0.0206,0.0206,-0.0472,-0.0477,-0.0618,-0.0706,-0.0739,-0.0667,-0.0541,-0.0259,0.0185,0.0417,0.0515,0.0531,0.0523,0.0551,0.0544,0.0525,0.064,0.0641,0.0642,-0.0527,-0.0572,-0.069,-0.0773,-0.0824,-0.0755,-0.0641,-0.0328,0.0344,0.0681,0.0773,0.0754,0.0798,0.0771,0.0829,0.0804,0.0776,0,0]}],[{"header":{"parameterUnit":"m.s-1","parameterCategory":2,"la1":30.2992,"la2":30.254,"lo1":-89.0895,"lo2":-89.0443,"dy":0.0025,"dx":0.0025,"nx":19,"ny":19,"refTime":"2026-03-29T21:00:00:Z","depth":"2","parameterNumber":2,"parameterNumberName":"U-component_of_CURRENTS"},"data":[0,0,0,-0.1605,-0.1605,-0.1602,-0.1602,-0.1495,-0.1494,0,0,0,0,0,0,0,0,0,0,0,-0.1605,-0.1605,-0.1605,-0.1605,-0.1602,-0.1602,-0.1495,-0.1494,0,0,0,0,0,0,0,0,0,0,0,-0.1605,-0.1605,-0.1606,-0.1605,-0.1603,-0.1602,-0.1495,-0.1519,0,0,0,0,0,0,0,0,0,0,-0.1533,-0.155,-0.1605,-0.1606,-0.1606,-0.1603,-0.1602,-0.1521,-0.1518,-0.1472,0,-0.1487,0,-0.1493,-0.1486,-0.1486,0,0,0,-0.1588,-0.1554,-0.156,-0.1606,-0.1606,-0.1603,-0.1599,-0.152,-0.1516,-0.1467,-0.1485,-0.1482,-0.1491,-0.1485,-0.1485,-0.1472,-0.1472,0,0,-0.1588,-0.159,-0.1564,-0.1558,-0.1622,-0.1599,-0.1599,-0.1518,-0.1514,-0.1485,-0.148,-0.149,-0.1484,-0.1483,-0.1471,-0.1472,0,0,0,-0.16,-0.159,-0.16,-0.1562,-0.1573,-0.16,-0.1599,-0.1517,-0.1524,-0.1479,-0.1488,-0.1484,-0.1482,-0.147,-0.1471,-0.1556,0,0,0,-0.16,-0.1598,-0.16,-0.1599,-0.1576,-0.1558,-0.16,-0.1529,-0.1521,-0.1489,-0.1484,-0.1481,-0.1469,-0.1471,-0.1551,-0.1632,0,0,0,-0.1602,-0.1598,-0.1605,-0.1599,-0.1607,-0.1561,-0.1562,-0.1528,-0.1526,-0.1485,-0.1481,-0.1469,-0.147,-0.1548,-0.1624,-0.1677,0,0,0,-0.1591,-0.1576,-0.1605,-0.1586,-0.1607,-0.1598,-0.1563,-0.1545,-0.1515,-0.1483,-0.1469,-0.1471,-0.1547,-0.1619,-0.1672,-0.154,-0.1551,0,0,-0.1557,-0.1572,-0.1558,-0.1584,-0.1577,-0.1596,-0.1612,-0.1565,-0.1529,-0.1483,-0.1483,-0.1553,-0.1623,-0.1676,-0.1643,-0.1651,0,0,0,-0.1536,-0.1525,-0.1527,-0.1535,-0.1553,-0.1628,-0.1588,-0.1604,-0.1604,-0.1524,-0.1566,-0.1609,-0.1638,-0.1549,-0.1556,-0.148,-0.1479,-0.1479,-0.1479,-0.1477,-0.1492,-0.15,-0.1534,-0.156,-0.1633,-0.1699,-0.1723,-0.1633,-0.1675,-0.1685,-0.1801,-0.1705,-0.1709,-0.167,-0.167,-0.1671,-0.1671,-0.1671,-0.1446,-0.1458,-0.1524,-0.1535,-0.1644,-0.1682,-0.1805,-0.1813,-0.188,-0.1799,-0.182,-0.1652,-0.1721,-0.1678,-0.1677,-0.1676,-0.1675,-0.1674,-0.1674,-0.1398,-0.1424,-0.145,-0.1544,-0.1661,-0.176,-0.1904,-0.1968,-0.1976,-0.2029,-0.1875,-0.1871,-0.186,-0.1997,-0.1997,-0.1998,-0.1998,-0.1999,-0.1999,-0.1367,-0.1406,-0.1451,-0.1564,-0.1639,-0.1782,-0.1962,-0.2017,-0.2027,-0.1997,-0.1994,-0.1911,-0.19,-0.188,-0.2009,-0.2007,-0.2006,-0.2005,-0.2004,-0.1305,-0.1351,-0.1406,-0.1473,-0.1659,-0.1727,-0.1916,-0.197,-0.2045,-0.2014,-0.1971,-0.1969,-0.1935,-0.1925,-0.1905,-0.2034,-0.2034,-0.2034,-0.2034,-0.128,-0.1305,-0.1383,-0.1471,-0.1603,-0.1703,-0.17,-0.1735,-0.1814,-0.1808,-0.1818,-0.1686,-0.1689,-0.1634,-0.1631,-0.1602,-0.1652,-0.1652,-0.1651,-0.1275,-0.1298,-0.1329,-0.1419,-0.1559,-0.1604,-0.1507,-0.1422,-0.147,-0.1637,-0.1756,-0.2008,-0.1832,-0.1831,-0.1756,-0.1748,-0.1705,0,0]},{"header":{"parameterUnit":"m.s-1","parameterCategory":2,"la1":30.2992,"la2":30.254,"lo1":-89.0895,"lo2":-89.0443,"dy":0.0025,"dx":0.0025,"nx":19,"ny":19,"refTime":"2026-03-29T21:00:00:Z","depth":"2","parameterNumber":3,"parameterNumberName":"V-component_of_CURRENTS"},"data":[0,0,0,-0.025,-0.0248,-0.0169,-0.0168,-0.0047,-0.0046,0,0,0,0,0,0,0,0,0,0,0,-0.0284,-0.0284,-0.025,-0.0248,-0.0169,-0.0168,-0.0047,-0.0046,0,0,0,0,0,0,0,0,0,0,0,-0.0284,-0.0284,-0.0284,-0.0248,-0.0169,-0.0168,-0.0048,-0.011,0,0,0,0,0,0,0,0,0,0,-0.0189,-0.0222,-0.0284,-0.0284,-0.0248,-0.0169,-0.0168,-0.0113,-0.0106,-0.0081,0,-0.008,0,-0.0061,-0.0039,-0.0038,0,0,0,-0.0238,-0.0228,-0.0212,-0.0284,-0.0247,-0.0169,-0.0202,-0.0109,-0.0101,-0.0071,-0.0079,-0.0074,-0.0059,-0.0038,-0.0037,0.0086,0.0086,0,0,-0.0242,-0.0259,-0.0218,-0.0208,-0.0241,-0.0204,-0.0199,-0.0105,-0.0099,-0.0078,-0.0071,-0.0057,-0.0037,-0.0036,0.0085,0.0086,0,0,0,-0.0262,-0.0263,-0.0249,-0.0213,-0.02,-0.0202,-0.0197,-0.0103,-0.0101,-0.0069,-0.0055,-0.0036,-0.0035,0.0085,0.0086,0.0051,0,0,0,-0.0264,-0.0274,-0.0251,-0.0259,-0.0203,-0.0152,-0.0197,-0.0107,-0.0096,-0.0056,-0.0036,-0.0034,0.0084,0.0085,0.0051,0.0015,0,0,0,-0.0285,-0.0276,-0.0273,-0.026,-0.023,-0.0153,-0.0144,-0.0104,-0.0087,-0.0038,-0.0034,0.0084,0.0085,0.0051,0.0016,0.005,0,0,0,-0.0296,-0.0294,-0.0274,-0.0258,-0.0231,-0.0176,-0.0144,-0.0095,-0.0056,-0.0036,0.0084,0.0086,0.0051,0.0017,0.0049,0.0023,0.0022,0,0,-0.0299,-0.0294,-0.0283,-0.0263,-0.0235,-0.0185,-0.0134,-0.0074,-0.0025,0.0055,0.0058,0.0051,0.0016,0.005,0.0091,0.0087,0,0,0,-0.0287,-0.0283,-0.0267,-0.0247,-0.0204,-0.0169,-0.01,-0.0049,0.003,0.0002,0.0085,0.0065,0.0086,0.0071,0.0069,0.0091,0.0091,0.0091,0.0091,-0.0329,-0.03,-0.0295,-0.0259,-0.0226,-0.0146,-0.0098,-0.0015,0.0034,0.0075,0.0062,0.0095,0.008,0.0078,0.0104,0.0104,0.0104,0.0104,0.0104,-0.0355,-0.0356,-0.0333,-0.0315,-0.0276,-0.0229,-0.0109,-0.0052,0.0059,0.0083,0.0107,0.0067,0.0073,0.0102,0.0102,0.0102,0.0103,0.0103,0.0103,-0.0379,-0.0385,-0.0373,-0.0385,-0.037,-0.0302,-0.0259,-0.0136,0.0006,0.0038,0.0065,0.0065,0.0061,0.0068,0.0068,0.0068,0.0068,0.0068,0.0068,-0.0425,-0.0417,-0.0465,-0.0463,-0.0494,-0.0476,-0.0336,-0.0251,-0.0084,0.0022,0.0023,0.0084,0.0085,0.0062,0.0068,0.0068,0.0068,0.0068,0.0068,-0.0455,-0.0475,-0.0555,-0.0601,-0.0662,-0.0673,-0.0532,-0.0331,-0.0189,-0.0106,0.0036,0.0036,0.0048,0.0051,0.0028,0.0025,0.0025,0.0025,0.0025,-0.0507,-0.0514,-0.0665,-0.0767,-0.0826,-0.0774,-0.0674,-0.0431,-0.0167,-0.0032,-0.003,-0.0039,-0.0036,-0.0028,-0.0024,-0.0048,-0.0071,-0.0071,-0.0071,-0.0566,-0.0611,-0.0736,-0.0833,-0.0913,-0.0867,-0.0762,-0.0475,-0.0144,-0.0075,-0.0047,0.0019,0.0013,0.0015,0.0033,0.0037,0.0002,0,0]}],[{"header":{"parameterUnit":"m.s-1","parameterCategory":2,"la1":30.2992,"la2":30.254,"lo1":-89.0895,"lo2":-89.0443,"dy":0.0025,"dx":0.0025,"nx":19,"ny":19,"refTime":"2026-03-29T21:00:00:Z","depth":"4","parameterNumber":2,"parameterNumberName":"U-component_of_CURRENTS"},"data":[0,0,0,-0.092,-0.0921,-0.0933,-0.0933,-0.0969,-0.097,0,0,0,0,0,0,0,0,0,0,0,-0.0916,-0.0916,-0.092,-0.0921,-0.0933,-0.0933,-0.0969,-0.097,0,0,0,0,0,0,0,0,0,0,0,-0.0915,-0.0916,-0.0916,-0.0921,-0.0933,-0.0933,-0.0969,-0.0953,0,0,0,0,0,0,0,0,0,0,-0.0937,-0.0934,-0.0916,-0.0916,-0.0921,-0.0933,-0.0933,-0.0952,-0.0954,-0.0973,0,-0.0981,0,-0.0982,-0.0974,-0.0974,0,0,0,-0.0912,-0.0932,-0.0937,-0.0916,-0.0921,-0.0933,-0.0925,-0.0952,-0.0955,-0.0976,-0.0982,-0.0983,-0.0982,-0.0974,-0.0974,-0.1042,-0.1042,0,0,-0.0911,-0.0916,-0.0935,-0.0939,-0.0934,-0.0925,-0.0925,-0.0954,-0.096,-0.0982,-0.0984,-0.0983,-0.0974,-0.0975,-0.1041,-0.1042,0,0,0,-0.0915,-0.0915,-0.0918,-0.0938,-0.0941,-0.0925,-0.0926,-0.0959,-0.0961,-0.0984,-0.0983,-0.0975,-0.0975,-0.1041,-0.1041,-0.1097,0,0,0,-0.0914,-0.0918,-0.0918,-0.0921,-0.0941,-0.0948,-0.0931,-0.0958,-0.0962,-0.0983,-0.0975,-0.0976,-0.1041,-0.1041,-0.1094,-0.1129,0,0,0,-0.0913,-0.0918,-0.0922,-0.0921,-0.093,-0.0947,-0.095,-0.0959,-0.0962,-0.0974,-0.0976,-0.104,-0.1041,-0.1092,-0.1125,-0.1164,0,0,0,-0.0913,-0.0938,-0.0923,-0.0952,-0.093,-0.0978,-0.095,-0.1002,-0.1023,-0.0975,-0.1041,-0.1041,-0.1092,-0.1123,-0.1161,-0.0974,0,0,0,-0.0946,-0.0942,-0.096,-0.0947,-0.0996,-0.0975,-0.1028,-0.1052,-0.1032,-0.103,-0.1032,-0.1095,-0.1125,-0.1163,-0.1019,0,0,0,0,-0.0971,-0.098,-0.0995,-0.1015,-0.1042,-0.1063,-0.1082,-0.1085,-0.1095,-0.1047,-0.1095,-0.1112,-0.1135,-0.1017,-0.1045,-0.1045,-0.1045,-0.1045,-0.1045,-0.102,-0.1023,-0.1056,-0.1068,-0.1104,-0.114,-0.116,-0.1159,-0.1148,-0.1162,-0.1157,-0.1224,-0.1101,-0.115,-0.115,-0.115,-0.1151,-0.1151,-0.1151,-0.1047,-0.1044,-0.1079,-0.1107,-0.1144,-0.119,-0.1226,-0.1228,-0.1254,-0.1215,-0.1233,-0.1082,-0.1156,-0.1155,-0.1154,-0.1154,-0.1153,-0.1153,-0.1153,-0.1028,-0.1027,-0.1054,-0.11,-0.1165,-0.1216,-0.124,-0.1283,-0.1305,-0.1329,-0.12,-0.1268,-0.1265,-0.134,-0.1341,-0.1341,-0.1341,-0.1341,-0.1342,-0.0982,-0.1011,-0.1026,-0.1091,-0.1121,-0.1175,-0.1259,-0.1264,-0.1319,-0.1253,-0.1354,-0.1288,-0.1282,-0.1276,-0.1347,-0.1346,-0.1345,-0.1345,-0.1344,-0.0914,-0.0941,-0.0948,-0.097,-0.1025,-0.1049,-0.1168,-0.1181,-0.12,-0.1185,-0.1204,-0.1209,-0.1175,-0.1172,-0.116,-0.12,-0.1198,-0.1195,0,-0.0864,-0.088,-0.0857,-0.0847,-0.0847,-0.0942,-0.0917,-0.0969,-0.1053,-0.103,-0.1178,-0.1197,-0.12,-0.1156,-0.115,-0.1132,0,0,0,-0.0818,-0.0814,-0.0756,-0.0748,-0.0734,-0.0782,-0.0892,-0.0878,-0.107,-0.1024,-0.1142,-0.1156,-0.1206,-0.1362,-0.1323,-0.1316,-0.1303,0,0]},{"header":{"parameterUnit":"m.s-1","parameterCategory":2,"la1":30.2992,"la2":30.254,"lo1":-89.0895,"lo2":-89.0443,"dy":0.0025,"dx":0.0025,"nx":19,"ny":19,"refTime":"2026-03-29T21:00:00:Z","depth":"4","parameterNumber":3,"parameterNumberName":"V-component_of_CURRENTS"},"data":[0,0,0,-0.0095,-0.0094,-0.0029,-0.0028,0.0049,0.005,0,0,0,0,0,0,0,0,0,0,0,-0.0121,-0.0121,-0.0096,-0.0094,-0.0029,-0.0028,0.0049,0.005,0,0,0,0,0,0,0,0,0,0,0,-0.0121,-0.0121,-0.0121,-0.0094,-0.0029,-0.0028,0.0049,0.0002,0,0,0,0,0,0,0,0,0,0,-0.006,-0.0086,-0.0121,-0.0121,-0.0094,-0.0029,-0.0028,0.0,0.0005,0.0015,0,0.002,0,0.0035,0.0054,0.0054,0,0,0,-0.0088,-0.009,-0.0072,-0.0121,-0.0093,-0.0029,-0.0056,0.0003,0.0009,0.0022,0.0021,0.0024,0.0036,0.0054,0.0055,0.0074,0.0074,0,0,-0.0091,-0.0107,-0.0076,-0.0069,-0.0083,-0.0059,-0.0054,0.0007,0.0009,0.0021,0.0026,0.0038,0.0055,0.0055,0.0074,0.0074,0,0,0,-0.0106,-0.011,-0.0093,-0.0072,-0.0061,-0.0057,-0.0052,0.0007,0.0012,0.0027,0.0039,0.0055,0.0056,0.0075,0.0074,-0.0004,0,0,0,-0.0108,-0.0119,-0.0095,-0.0103,-0.0062,-0.0025,-0.0054,0.0008,0.0015,0.0038,0.0055,0.0057,0.0075,0.0075,-0.0002,-0.0063,0,0,0,-0.0123,-0.012,-0.0115,-0.0104,-0.0078,-0.0026,-0.0017,0.001,0.0022,0.0054,0.0057,0.0075,0.0075,0.0001,-0.0057,-0.0082,0,0,0,-0.0138,-0.0134,-0.0115,-0.0106,-0.0079,-0.0054,-0.0017,0.0015,0.0041,0.0056,0.0075,0.0074,0.0002,-0.0054,-0.0079,-0.0062,0,0,0,-0.0142,-0.0135,-0.0129,-0.011,-0.0115,-0.0062,-0.0071,-0.0017,0.0032,0.0057,0.0057,-0.0002,-0.0057,-0.0081,-0.0101,0,0,0,0,-0.0135,-0.0143,-0.0135,-0.0135,-0.0106,-0.0121,-0.006,-0.0038,-0.0009,0.0043,0.0006,-0.0026,-0.0039,-0.0019,0.0071,0.0071,0.0071,0.0071,0.0071,-0.0197,-0.0181,-0.0199,-0.019,-0.0182,-0.0156,-0.0158,-0.0124,-0.0051,-0.0051,-0.0083,-0.015,-0.0131,-0.0058,-0.0059,-0.0059,-0.006,-0.006,-0.006,-0.0247,-0.0262,-0.0273,-0.0282,-0.0295,-0.0299,-0.0272,-0.023,-0.0218,-0.0149,-0.0156,-0.0095,-0.0068,-0.0066,-0.0065,-0.0064,-0.0063,-0.0063,-0.0063,-0.0288,-0.0299,-0.0309,-0.0365,-0.0413,-0.0399,-0.0447,-0.0391,-0.0308,-0.0323,-0.0257,-0.0205,-0.0206,-0.0298,-0.0298,-0.0298,-0.0299,-0.0299,-0.0299,-0.0326,-0.0342,-0.0403,-0.0451,-0.0503,-0.0547,-0.0537,-0.0521,-0.0435,-0.0365,-0.0333,-0.023,-0.0222,-0.0219,-0.0305,-0.0304,-0.0303,-0.0303,-0.0303,-0.0361,-0.0379,-0.0472,-0.0535,-0.0651,-0.0673,-0.0668,-0.0583,-0.0563,-0.0496,-0.0376,-0.037,-0.0342,-0.0331,-0.0331,-0.0454,-0.0454,-0.0454,0,-0.0397,-0.0411,-0.0552,-0.0665,-0.0756,-0.0754,-0.0723,-0.0672,-0.0553,-0.0533,-0.0566,-0.0435,-0.0428,-0.0399,-0.0389,-0.0392,0,0,0,-0.0446,-0.0483,-0.0591,-0.0697,-0.0799,-0.0742,-0.0709,-0.0666,-0.0564,-0.0522,-0.0458,-0.0457,-0.041,-0.0323,-0.0266,-0.0257,-0.0249,0,0]}]]